Main page
Satellite images Climate Cyclones Lightning AirportsFAQ Languages Contact Newsletter About
Weather : Europe Africa North America South America Asia Australia-Oceania Others

, Khon Kaen, Khon Kaen Airport

48381

latitude: , longitude: Thailand, elevation: 16-26N m


METAR: VTUK 221000Z 07004KT 030V120 9999 FEW030 BKN100 30/24 Q1010 NOSIG